Location: Newark
(25.0000°N, 73.5000°E)
Time: 04:38:04
(UTC+00:00)

Altair - Pass Details

Date: 05 March 2021
Orbit: 1501 x 1683 km, 47.2° (Epoch: 12 April)

Event Time Altitude Azimuth Distance (km) Brightness Sun altitude
Rises 22:31:12 0° 292° (WNW) 4,827 - -39.8°
Reaches altitude 10° 22:35:30 10° 276° (W) 3,869 - -38.8°
Maximum altitude 22:41:49 19° 235° (SW) 3,236 - -37.4°
Drops below altitude 10° 22:48:14 10° 195° (SSW) 3,925 - -36.0°
Exits shadow 22:50:37 - 185° (S) 4,420 9.7 -35.5°
Sets 22:52:44 0° 178° (S) 4,919 10.1 -35.0°
